[[{"header":{"parameterUnit":"m.s-1","parameterCategory":1,"la1":30.2991,"la2":30.254,"lo1":-89.0895,"lo2":-89.0444,"dy":0.0017,"dx":0.0017,"nx":28,"ny":28,"refTime":"2024-04-28T03:00:00:Z","depth":0,"parameterNumber":2,"parameterNumberName":"U-component_of_WINDS"},"data":[0,0,0,0,0,0,0,0,0,0,0,0,0,0,0,0,0,0,0,0,0,0,0,0,0,0,0,0,0,0,0,0,0,0,0,0,0,0,0,0,0,0,0,0,0,0,0,0,0,0,0,0,0,0,0,0,0,0,-7.845,-7.8451,0,-7.856,-7.8561,-7.8562,-7.8543,-7.8541,-7.8539,-7.8538,-7.8644,-7.8649,-7.8654,0,0,0,0,0,0,0,0,0,0,0,0,0,-7.822,-7.8224,-7.845,-7.8451,-7.8452,-7.856,-7.8561,-7.8563,-7.8543,-7.8541,-7.8539,-7.8537,-7.8643,-7.8648,-7.8654,0,0,0,0,0,0,0,0,0,0,0,0,0,-7.8324,-7.8226,-7.8449,-7.8456,-7.8458,-7.8559,-7.8561,-7.8563,-7.8544,-7.8541,-7.8538,-7.8536,-7.8641,-7.8648,-7.8655,-7.8755,0,0,-7.8676,-7.8679,0,0,0,0,0,0,0,0,-7.8318,-7.8332,-7.8454,-7.8456,-7.8458,-7.8535,-7.8519,-7.8627,-7.8545,-7.8511,-7.8537,-7.8534,-7.861,-7.8619,-7.8646,-7.876,-7.8765,-7.8677,-7.8681,-7.8684,-7.8686,0,0,0,0,0,0,0,-7.8311,-7.8327,-7.8493,-7.8455,-7.8458,-7.8452,-7.8464,-7.854,-7.8575,-7.8514,-7.8513,-7.8526,-7.861,-7.8639,-7.8648,-7.8766,-7.8676,-7.8683,-7.8687,-7.869,-7.8969,-7.8972,0,0,0,0,0,0,-7.8302,-7.8321,-7.8489,-7.8496,-7.8379,-7.8459,-7.8472,-7.8513,-7.8574,-7.8581,-7.8529,-7.8525,-7.8629,-7.864,-7.8652,-7.8773,-7.8684,-7.869,-7.8694,-7.8966,-7.897,-7.8974,0,0,0,0,0,0,-7.8297,-7.8317,-7.8485,-7.8409,-7.843,-7.8466,-7.8512,-7.8517,-7.8545,-7.8586,-7.8591,-7.8552,-7.8627,-7.8642,-7.873,-7.8776,-7.8693,-7.87,-7.8962,-7.8967,-7.8972,-7.9016,0,0,0,0,0,0,-7.8291,-7.8316,-7.8354,-7.841,-7.8434,-7.8562,-7.8515,-7.8521,-7.8558,-7.8554,-7.8609,-7.8615,-7.8626,-7.872,-7.8737,-7.8785,-7.8705,-7.8958,-7.8964,-7.897,-7.9011,-7.9022,-7.9032,0,0,0,0,0,-7.8282,-7.8361,-7.8356,-7.8377,-7.8483,-7.8565,-7.8578,-7.8591,-7.8562,-7.8601,-7.8627,-7.8613,-7.877,-7.8729,-7.8748,-7.8798,-7.8955,-7.8963,-7.897,-7.9006,-7.902,-7.9031,0,0,0,0,0,0,-7.8307,-7.8368,-7.8364,-7.8463,-7.8509,-7.8561,-7.861,-7.8605,-7.8659,-7.8653,-7.8666,-7.8678,-7.8767,-7.8792,-7.8746,-7.89,-7.8858,-7.887,-7.8879,-7.8893,-7.8903,-7.8893,-7.8711,0,0,0,0,0,-7.8324,-7.8387,-7.8437,-7.8519,-7.8543,-7.8573,-7.8609,-7.8616,-7.8663,-7.8682,-7.8715,-7.876,-7.882,-7.8858,-7.8915,-7.9016,-7.9027,-7.906,-7.9071,-7.9079,-7.9088,-7.9143,-7.9158,-7.8998,-7.8998,-7.8998,0,0,-7.8359,-7.8401,-7.8439,-7.8525,-7.8562,-7.8625,-7.8589,-7.8657,-7.8704,-7.8692,-7.8776,-7.8803,-7.8855,-7.895,-7.8993,-7.8973,-7.9136,-7.9089,-7.9095,-7.9099,-7.9152,-7.9167,-7.9181,-7.9003,-7.9002,-7.9001,0,0,-7.8455,-7.8494,-7.8567,-7.8606,-7.8663,-7.8684,-7.8701,-7.8756,-7.8774,-7.886,-7.8853,-7.8909,-7.9011,-7.9048,-7.9081,-7.9197,-7.9185,-7.9215,-7.9268,-7.9322,-7.9335,-7.9346,-7.9385,-7.94,-7.9225,-7.9225,-7.9225,0,-7.849,-7.8587,-7.8604,-7.8674,-7.8712,-7.8709,-7.8782,-7.8818,-7.889,-7.8916,-7.8894,-7.9025,-7.9059,-7.9163,-7.9192,-7.9219,-7.9239,-7.9206,-7.9332,-7.9343,-7.9354,-7.9392,-7.9407,-7.9228,-7.9227,-7.9227,-7.9227,0,-7.8627,-7.8695,-7.8747,-7.882,-7.8864,-7.8935,-7.8963,-7.9006,-7.9011,-7.9033,-7.9122,-7.9165,-7.923,-7.9257,-7.926,-7.9362,-7.9348,-7.9329,-7.9287,-7.9372,-7.9408,-7.9422,-7.9232,-7.9231,-7.923,-7.9229,0,0,-7.8736,-7.8821,-7.884,-7.8873,-7.8939,-7.899,-7.9063,-7.913,-7.9166,-7.9218,-7.9277,-7.9367,-7.9351,-7.9388,-7.9397,-7.9445,-7.9532,-7.942,-7.9421,-7.9437,-7.9646,-7.9656,-7.9673,-7.9528,-7.9531,-7.9533,-7.964,0,-7.8836,-7.8964,-7.8984,-7.9096,-7.9158,-7.9158,-7.9221,-7.9268,-7.9292,-7.9348,-7.9375,-7.9437,-7.9413,-7.9435,-7.9483,-7.9511,-7.9574,-7.9505,-7.9581,-7.9583,-7.9564,-7.9692,-7.9703,-7.9802,-7.9655,-7.9657,-7.9659,0,-7.8968,-7.9026,-7.9145,-7.9205,-7.9231,-7.9287,-7.9352,-7.9406,-7.9459,-7.9474,-7.9518,-7.9522,-7.9596,-7.9556,-7.9657,-7.961,-7.9644,-7.9663,-7.9667,-7.9671,-7.9623,-7.9696,-7.9834,-7.9847,-7.9681,-7.9679,-7.9678,0,-7.9032,-7.9141,-7.9226,-7.9255,-7.9327,-7.9366,-7.9398,-7.9449,-7.9489,-7.9546,-7.9571,-7.9636,-7.9669,-7.9719,-7.974,-7.9709,-7.9841,-7.9801,-7.9853,-7.9852,-7.9876,-7.9874,-8.0018,-7.9904,-7.9904,-7.9904,-7.9903,0,-7.914,-7.9212,-7.9256,-7.9308,-7.939,-7.9413,-7.9493,-7.9523,-7.9569,-7.9627,-7.9632,-7.9685,-7.9712,-7.9769,-7.9787,-7.9868,-7.9884,-7.9897,-7.99,-7.9894,-7.9892,-7.9913,-7.9905,-7.9908,-7.9907,-7.9906,-7.9905,0,-7.9223,-7.9256,-7.9349,-7.9411,-7.9428,-7.9485,-7.9538,-7.9588,-7.9615,-7.9688,-7.9706,-7.9747,-7.9816,-7.9844,-7.9927,-7.9939,-8.0032,-8.0031,-8.0014,-8.0014,-8.0063,-8.0057,-8.0222,-8.0244,-8.0119,-8.012,-8.0121,0,-7.9287,-7.9343,-7.9413,-7.9453,-7.9486,-7.955,-7.9592,-7.9619,-7.9662,-7.973,-7.9772,-7.9841,-7.9897,-8.0007,-8.0043,-8.0107,-8.0106,-8.016,-8.0115,-8.0109,-8.0104,-8.0099,-8.0104,-8.0166,-8.0168,-8.0169,-8.017,0,-7.9397,-7.9411,-7.9472,-7.954,-7.9591,-7.9645,-7.9698,-7.973,-7.9765,-7.9813,-7.9885,-7.9929,-8.0016,-8.0084,-8.0152,-8.0183,-8.0182,-8.0185,-8.0199,-8.0192,-8.0179,-8.0184,-8.0032,-8.0179,-8.0178,-8.0178,-8.0177,-8.0177,-7.947,-7.9521,-7.9578,-7.9646,-7.969,-7.974,-7.9791,-7.9826,-7.9887,-7.996,-7.9973,-8.0049,-8.0104,-8.0195,-8.023,-8.0289,-8.0275,-8.0297,-8.0302,-8.0306,-8.0308,-8.0173,-8.0302,-8.0301,-8.0301,-8.0301,-8.0301,0,-7.9578,-7.9617,-7.968,-7.9755,-7.9809,-7.9808,-7.9867,-7.9912,-7.9979,-8.0032,-8.0089,-8.0171,-8.0239,-8.0283,-8.0351,-8.039,-8.0391,-8.0406,-8.0402,-8.0409,-8.0318,-8.0297,-8.0404,-8.0404,-8.0404,-8.0404,-8.0404,-8.0404,-7.964,-7.9725,-7.9748,-7.9854,-7.9892,-7.9968,-8.0002,-8.0048,-8.009,-8.0183,-8.024,-8.027,-8.0319,-8.0391,-8.0453,-8.0464,-8.0487,-8.0503,-8.0513,-8.0426,-8.0415,-8.0405,-8.0385,-8.0509,-8.0509,-8.0599,-8.06,-8.06]},{"header":{"parameterUnit":"m.s-1","parameterCategory":1,"la1":30.2991,"la2":30.254,"lo1":-89.0895,"lo2":-89.0444,"dy":0.0017,"dx":0.0017,"nx":28,"ny":28,"refTime":"2024-04-28T03:00:00:Z","depth":0,"parameterNumber":3,"parameterNumberName":"V-component_of_WINDS"},"data":[0,0,0,0,0,0,0,0,0,0,0,0,0,0,0,0,0,0,0,0,0,0,0,0,0,0,0,0,0,0,0,0,0,0,0,0,0,0,0,0,0,0,0,0,0,0,0,0,0,0,0,0,0,0,0,0,0,0,4.0108,4.0109,0,4.0138,4.0139,4.0139,4.0185,4.0186,4.0187,4.0188,4.0212,4.0212,4.0211,0,0,0,0,0,0,0,0,0,0,0,0,0,4.0087,4.0087,4.0108,4.0109,4.0109,4.0138,4.0139,4.0139,4.0185,4.0186,4.0187,4.0188,4.0212,4.0212,4.0211,0,0,0,0,0,0,0,0,0,0,0,0,0,4.0104,4.0087,4.0108,4.0136,4.0139,4.0138,4.0139,4.0139,4.0185,4.0186,4.0188,4.0189,4.0212,4.0212,4.0211,4.0184,0,0,4.0211,4.0211,0,0,0,0,0,0,0,0,4.0103,4.0105,4.0131,4.0134,4.0137,4.016,4.014,4.0154,4.0185,4.0167,4.0188,4.0189,4.0193,4.0194,4.0197,4.0185,4.0186,4.0211,4.0211,4.021,4.021,0,0,0,0,0,0,0,4.0102,4.0104,4.012,4.0132,4.0135,4.0145,4.0149,4.0143,4.0172,4.0169,4.0172,4.0176,4.0195,4.0197,4.0198,4.0187,4.0211,4.021,4.021,4.021,4.0157,4.0156,0,0,0,0,0,0,4.0098,4.0103,4.0119,4.0121,4.0123,4.0145,4.0149,4.0151,4.0173,4.0177,4.0174,4.0178,4.0197,4.0198,4.0199,4.017,4.021,4.021,4.021,4.0159,4.0157,4.0156,0,0,0,0,0,0,4.0097,4.0099,4.0118,4.0113,4.0116,4.0144,4.0145,4.0151,4.0153,4.0177,4.0182,4.0172,4.0198,4.0199,4.0189,4.0172,4.021,4.021,4.016,4.0158,4.0156,4.0112,0,0,0,0,0,0,4.0096,4.0098,4.0089,4.0112,4.0116,4.0108,4.0144,4.015,4.0154,4.0158,4.0176,4.018,4.0199,4.0189,4.0188,4.0172,4.021,4.0162,4.0159,4.0157,4.0115,4.0109,4.0104,0,0,0,0,0,4.0095,4.0073,4.0088,4.009,4.0105,4.0107,4.0109,4.0134,4.0152,4.0143,4.0158,4.0179,4.0174,4.0187,4.0187,4.0171,4.0163,4.016,4.0157,4.0118,4.011,4.0104,0,0,0,0,0,0,4.0043,4.0076,4.0093,4.0079,4.009,4.0115,4.0104,4.0124,4.0129,4.0133,4.0161,4.0165,4.0151,4.016,4.0174,4.0147,4.0172,4.0169,4.0142,4.0135,4.0129,4.0127,4.021,0,0,0,0,0,4.0031,4.0031,4.0059,4.0043,4.0049,4.0075,4.0077,4.0095,4.0107,4.0112,4.0126,4.0136,4.0137,4.0136,4.0138,4.0117,4.0122,4.0106,4.01,4.0095,4.0092,4.0084,4.0077,4.0146,4.0146,4.0147,0,0,4.0004,4.0022,4.002,4.0034,4.0045,4.0044,4.0079,4.0075,4.0074,4.011,4.0103,4.0114,4.0126,4.0111,4.0105,4.0118,4.0074,4.0091,4.0087,4.0087,4.008,4.0073,4.0067,4.0145,4.0145,4.0145,0,0,3.9954,3.9968,3.9957,3.9969,3.9986,4.0005,4.0002,4.0025,4.0035,4.0028,4.0056,4.0054,4.0054,4.0063,4.0067,4.0025,4.0044,4.0024,3.9993,3.9985,3.998,3.9975,3.9961,3.9955,4.0021,4.0021,4.0021,0,3.9918,3.9919,3.9948,3.9945,3.995,3.9986,3.9976,3.9984,4.0,4.0003,4.0018,4.0021,4.0032,4.002,4.0011,4.0012,4.001,4.0022,3.9978,3.9974,3.997,3.9957,3.9951,4.0018,4.0019,4.0019,4.0019,0,3.9874,3.9874,3.9863,3.9882,3.9886,3.9878,3.9906,3.9907,3.9926,3.9942,3.9936,3.995,3.9957,3.9956,3.9972,3.9947,3.9955,3.9974,3.9999,3.996,3.9949,3.9944,4.0015,4.0016,4.0017,4.0017,0,0,3.9791,3.9828,3.9824,3.9834,3.9857,3.9857,3.9852,3.9861,3.9862,3.9872,3.9868,3.9869,3.9888,3.9893,3.9911,3.9904,3.9871,3.9924,3.9924,3.9914,3.9846,3.9832,3.9825,3.9885,3.9884,3.9883,3.9845,0,3.9746,3.9741,3.9769,3.9756,3.9757,3.9793,3.9788,3.9801,3.9817,3.982,3.9837,3.9838,3.9862,3.9865,3.986,3.9876,3.9858,3.9879,3.9881,3.988,3.9877,3.9819,3.9804,3.9767,3.984,3.984,3.9839,0,3.9693,3.9705,3.9693,3.972,3.9721,3.9717,3.9729,3.9731,3.9747,3.9759,3.9767,3.9789,3.9785,3.981,3.9805,3.9819,3.9822,3.983,3.9829,3.983,3.9857,3.9819,3.9756,3.975,3.9832,3.9832,3.9833,0,3.9636,3.9648,3.9643,3.965,3.968,3.9677,3.9689,3.9707,3.9712,3.9721,3.9725,3.9733,3.9738,3.9743,3.9767,3.9783,3.976,3.9786,3.9769,3.9769,3.9762,3.9762,3.9699,3.9763,3.9763,3.9763,3.9763,0,3.9584,3.9575,3.9618,3.9614,3.9606,3.9638,3.9629,3.9644,3.966,3.966,3.969,3.9689,3.9721,3.9724,3.9742,3.9736,3.9737,3.9747,3.9752,3.9744,3.9743,3.9746,3.9749,3.9762,3.9762,3.9763,3.9763,0,3.9517,3.9546,3.9543,3.9574,3.9581,3.9574,3.9599,3.9597,3.9616,3.9616,3.9618,3.9647,3.9652,3.9677,3.9686,3.9699,3.9686,3.9696,3.9681,3.9685,3.9667,3.9669,3.9603,3.9597,3.9664,3.9664,3.9663,0,3.9483,3.9477,3.9509,3.9512,3.9524,3.9529,3.9535,3.9566,3.9571,3.9591,3.9587,3.9594,3.9602,3.9608,3.9629,3.9637,3.9648,3.9625,3.9649,3.9642,3.9648,3.9649,3.9649,3.9619,3.9618,3.9617,3.9617,0,3.9418,3.9433,3.9442,3.9456,3.9463,3.9475,3.9488,3.9489,3.9524,3.9528,3.9535,3.9541,3.9553,3.956,3.9573,3.9584,3.9606,3.9609,3.9606,3.9598,3.9591,3.9596,3.9668,3.961,3.9611,3.9611,3.9612,3.9612,3.9367,3.9365,3.9388,3.9397,3.9411,3.9424,3.9425,3.9445,3.9452,3.9466,3.9484,3.9489,3.9506,3.9526,3.9536,3.9539,3.9552,3.9546,3.9545,3.9544,3.954,3.959,3.9541,3.9542,3.9542,3.9542,3.9542,0,3.9306,3.9323,3.9331,3.9351,3.9358,3.9381,3.9398,3.9402,3.9406,3.9422,3.9431,3.944,3.9448,3.9471,3.9481,3.9479,3.949,3.9481,3.9481,3.9484,3.9528,3.9531,3.9473,3.9473,3.9473,3.9473,3.9473,3.9473,3.9274,3.9273,3.9291,3.9297,3.9314,3.9321,3.9329,3.934,3.9354,3.9363,3.9371,3.9387,3.9406,3.9418,3.9427,3.9433,3.9436,3.9424,3.9433,3.9474,3.9481,3.9487,3.9489,3.9424,3.9424,3.9389,3.9389,3.9389]}]]